When you browse on this site, cookies collect data to enhance your experience and personalize the content and advertising you see.
Visit our Privacy Policy to learn more. By continuing to use the site, you agree to this use of cookies and data.
  • In Schweiz
  • Länderverzeichnis
  • Für 7 Tage
  • Wassertemperatur
  • Wetterkarte
  • Widgets
  • user-avatar
    Anmelden

    Stündliche Wetter Filderstadt

    Heute, 28 Mai, Donnerstag

    Zeit Temperatur Niederschläge Wind Luftdruck Luftfeuchtigkeit
    00:00 +12°C° 0 mm 1 m/S 737 mmHg 82%
    01:00 +11°C° 0 mm 0 m/S 737 mmHg 84%
    02:00 +11°C° 0 mm 0 m/S 736 mmHg 83%
    03:00 +12°C° 0 mm 1 m/S 736 mmHg 83%
    04:00 +12°C° 0 mm 1 m/S 736 mmHg 83%
    05:00 +13°C° 0 mm 1 m/S 736 mmHg 80%
    06:00 +14°C° 0 mm 1 m/S 736 mmHg 78%
    07:00 +15°C° 0 mm 1 m/S 736 mmHg 76%
    08:00 +16°C° 0.2 mm 2 m/S 737 mmHg 76%
    09:00 +16°C° 0.2 mm 3 m/S 737 mmHg 76%
    10:00 +17°C° 0.2 mm 4 m/S 737 mmHg 76%
    11:00 +17°C° 0.2 mm 4 m/S 737 mmHg 69%
    12:00 +18°C° 0.2 mm 4 m/S 736 mmHg 63%
    13:00 +19°C° 0.2 mm 4 m/S 736 mmHg 56%
    14:00 +19°C° 0 mm 5 m/S 736 mmHg 54%
    15:00 +19°C° 0 mm 5 m/S 736 mmHg 51%
    16:00 +17°C° 0 mm 5 m/S 735 mmHg 49%
    17:00 +17°C° 0 mm 4 m/S 735 mmHg 54%
    18:00 +15°C° 0 mm 4 m/S 735 mmHg 59%
    19:00 +14°C° 0 mm 3 m/S 735 mmHg 65%
    20:00 +13°C° 0 mm 3 m/S 736 mmHg 68%
    21:00 +11°C° 0 mm 3 m/S 736 mmHg 71%
    22:00 +10°C° 0 mm 2 m/S 736 mmHg 74%
    23:00 +9°C° 0 mm 2 m/S 736 mmHg 77%

    Morgen, 29 Mai, Freitag

    Zeit Temperatur Niederschläge Wind Luftdruck Luftfeuchtigkeit
    00:00 +8°C° 0 mm 2 m/S 736 mmHg 80%
    01:00 +8°C° 0 mm 2 m/S 736 mmHg 83%
    02:00 +7°C° 0 mm 2 m/S 735 mmHg 86%
    03:00 +7°C° 0 mm 2 m/S 735 mmHg 88%
    04:00 +6°C° 0 mm 2 m/S 735 mmHg 91%
    05:00 +7°C° 0 mm 2 m/S 735 mmHg 86%
    06:00 +9°C° 0 mm 2 m/S 735 mmHg 81%
    07:00 +10°C° 0 mm 2 m/S 735 mmHg 76%
    08:00 +12°C° 0 mm 3 m/S 734 mmHg 70%
    09:00 +14°C° 0 mm 4 m/S 734 mmHg 64%
    10:00 +15°C° 0 mm 5 m/S 734 mmHg 58%
    11:00 +16°C° 0 mm 5 m/S 734 mmHg 57%
    12:00 +17°C° 0 mm 5 m/S 733 mmHg 55%
    13:00 +19°C° 0 mm 5 m/S 733 mmHg 53%
    14:00 +19°C° 0 mm 5 m/S 733 mmHg 53%
    15:00 +19°C° 0 mm 5 m/S 732 mmHg 53%
    16:00 +19°C° 0 mm 5 m/S 732 mmHg 54%
    17:00 +18°C° 0 mm 4 m/S 732 mmHg 59%
    18:00 +17°C° 0 mm 4 m/S 731 mmHg 64%
    19:00 +16°C° 0 mm 3 m/S 731 mmHg 69%
    20:00 +13°C° 0 mm 3 m/S 731 mmHg 69%
    21:00 +12°C° 0 mm 3 m/S 732 mmHg 69%
    22:00 +10°C° 0 mm 3 m/S 732 mmHg 69%
    23:00 +10°C° 0 mm 3 m/S 732 mmHg 68%

    übermorgen, 30 Mai, Samstag

    Zeit Temperatur Niederschläge Wind Luftdruck Luftfeuchtigkeit
    00:00 +9°C° 0 mm 3 m/S 732 mmHg 68%
    01:00 +8°C° 0 mm 3 m/S 732 mmHg 67%
    02:00 +8°C° 0 mm 3 m/S 732 mmHg 68%
    03:00 +7°C° 0 mm 2 m/S 731 mmHg 70%
    04:00 +7°C° 0 mm 2 m/S 731 mmHg 72%
    05:00 +8°C° 0 mm 2 m/S 731 mmHg 70%
    06:00 +9°C° 0 mm 3 m/S 732 mmHg 69%
    07:00 +10°C° 0 mm 3 m/S 732 mmHg 67%
    08:00 +12°C° 0 mm 4 m/S 732 mmHg 63%
    09:00 +13°C° 0 mm 4 m/S 732 mmHg 59%
    10:00 +14°C° 0 mm 5 m/S 732 mmHg 54%
    11:00 +15°C° 0 mm 5 m/S 731 mmHg 54%
    12:00 +15°C° 0 mm 5 m/S 731 mmHg 54%
    13:00 +15°C° 0 mm 5 m/S 731 mmHg 54%
    14:00 +15°C° 0 mm 5 m/S 731 mmHg 54%
    15:00 +15°C° 0 mm 5 m/S 731 mmHg 54%
    16:00 +15°C° 0 mm 5 m/S 731 mmHg 54%
    17:00 +14°C° 0 mm 4 m/S 730 mmHg 58%
    18:00 +14°C° 0 mm 4 m/S 730 mmHg 62%
    19:00 +13°C° 0 mm 3 m/S 730 mmHg 66%
    20:00 +11°C° 0 mm 3 m/S 730 mmHg 71%
    21:00 +10°C° 0 mm 2 m/S 731 mmHg 76%
    22:00 +8°C° 0 mm 2 m/S 731 mmHg 80%
    23:00 +8°C° 0 mm 2 m/S 731 mmHg 82%

    31 Mai, Sonntag

    Zeit Temperatur Niederschläge Wind Luftdruck Luftfeuchtigkeit
    00:00 +7°C° 0 mm 2 m/S 731 mmHg 83%
    01:00 +7°C° 0 mm 1 m/S 730 mmHg 85%
    02:00 +7°C° 0 mm 1 m/S 730 mmHg 87%
    03:00 +7°C° 0 mm 1 m/S 730 mmHg 88%
    04:00 +6°C° 0 mm 1 m/S 730 mmHg 90%
    05:00 +8°C° 0 mm 1 m/S 730 mmHg 85%
    06:00 +8°C° 0 mm 2 m/S 730 mmHg 80%
    07:00 +10°C° 0 mm 2 m/S 730 mmHg 75%
    08:00 +13°C° 0 mm 2 m/S 730 mmHg 69%
    09:00 +13°C° 0 mm 3 m/S 730 mmHg 62%
    10:00 +16°C° 0 mm 3 m/S 730 mmHg 56%
    11:00 +17°C° 0 mm 4 m/S 730 mmHg 54%
    12:00 +18°C° 0 mm 4 m/S 730 mmHg 53%
    13:00 +19°C° 0 mm 4 m/S 730 mmHg 51%
    14:00 +18°C° 0 mm 4 m/S 730 mmHg 54%
    15:00 +18°C° 0 mm 4 m/S 730 mmHg 56%
    16:00 +17°C° 0 mm 5 m/S 730 mmHg 59%
    17:00 +17°C° 0 mm 4 m/S 730 mmHg 65%
    18:00 +15°C° 0 mm 4 m/S 730 mmHg 70%
    19:00 +14°C° 0 mm 4 m/S 730 mmHg 75%
    20:00 +12°C° 0 mm 3 m/S 730 mmHg 80%
    21:00 +11°C° 0 mm 3 m/S 730 mmHg 85%
    22:00 +9°C° 0 mm 2 m/S 730 mmHg 89%
    23:00 +9°C° 0 mm 2 m/S 730 mmHg 90%

    1 Juni, Montag

    Zeit Temperatur Niederschläge Wind Luftdruck Luftfeuchtigkeit
    00:00 +10°C° 0 mm 1 m/S 730 mmHg 91%
    01:00 +9°C° 0 mm 1 m/S 730 mmHg 91%
    02:00 +9°C° 0 mm 1 m/S 730 mmHg 92%
    03:00 +9°C° 0 mm 1 m/S 730 mmHg 92%
    04:00 +9°C° 0 mm 1 m/S 729 mmHg 92%
    05:00 +10°C° 0 mm 1 m/S 729 mmHg 90%
    06:00 +11°C° 0 mm 1 m/S 729 mmHg 87%
    07:00 +12°C° 0 mm 1 m/S 729 mmHg 85%
    08:00 +14°C° 0 mm 2 m/S 729 mmHg 82%
    09:00 +15°C° 0 mm 2 m/S 729 mmHg 78%
    10:00 +16°C° 0 mm 3 m/S 729 mmHg 75%
    11:00 +17°C° 0 mm 3 m/S 729 mmHg 72%
    12:00 +19°C° 0 mm 3 m/S 729 mmHg 69%
    13:00 +20°C° 0 mm 4 m/S 728 mmHg 66%
    14:00 +21°C° 0 mm 4 m/S 728 mmHg 63%
    15:00 +22°C° 0 mm 4 m/S 728 mmHg 60%
    16:00 +23°C° 0 mm 5 m/S 728 mmHg 57%
    17:00 +22°C° 0 mm 4 m/S 727 mmHg 63%
    18:00 +21°C° 0 mm 3 m/S 727 mmHg 68%
    19:00 +20°C° 0 mm 3 m/S 727 mmHg 73%
    20:00 +18°C° 0 mm 3 m/S 727 mmHg 77%
    21:00 +17°C° 0 mm 3 m/S 727 mmHg 80%
    22:00 +14°C° 0 mm 3 m/S 728 mmHg 83%
    23:00 +14°C° 0 mm 3 m/S 727 mmHg 84%

    2 Juni, Dienstag

    Zeit Temperatur Niederschläge Wind Luftdruck Luftfeuchtigkeit
    00:00 +13°C° 0 mm 3 m/S 727 mmHg 84%
    01:00 +13°C° 0 mm 3 m/S 727 mmHg 85%
    02:00 +12°C° 0 mm 3 m/S 727 mmHg 87%
    03:00 +11°C° 0 mm 3 m/S 727 mmHg 89%
    04:00 +11°C° 0 mm 3 m/S 726 mmHg 91%
    05:00 +12°C° 0 mm 3 m/S 726 mmHg 87%
    06:00 +13°C° 0 mm 4 m/S 727 mmHg 83%
    07:00 +14°C° 0 mm 4 m/S 727 mmHg 79%
    08:00 +15°C° 0 mm 4 m/S 727 mmHg 73%
    09:00 +17°C° 0 mm 5 m/S 727 mmHg 66%
    10:00 +20°C° 0 mm 5 m/S 727 mmHg 60%
    11:00 +20°C° 0 mm 5 m/S 727 mmHg 57%
    12:00 +21°C° 0 mm 5 m/S 726 mmHg 55%
    13:00 +22°C° 0 mm 5 m/S 726 mmHg 53%
    14:00 +22°C° 0 mm 5 m/S 726 mmHg 53%
    15:00 +22°C° 0 mm 5 m/S 726 mmHg 53%
    16:00 +22°C° 0 mm 5 m/S 725 mmHg 53%
    17:00 +21°C° 0 mm 5 m/S 725 mmHg 58%
    18:00 +20°C° 0 mm 4 m/S 725 mmHg 62%
    19:00 +19°C° 0 mm 4 m/S 725 mmHg 67%
    20:00 +18°C° 0 mm 3 m/S 725 mmHg 71%
    21:00 +16°C° 0 mm 3 m/S 725 mmHg 74%
    22:00 +14°C° 0 mm 3 m/S 725 mmHg 78%
    23:00 +13°C° 0 mm 3 m/S 725 mmHg 82%
    Mehr zeigen